| time (UTC) | temp F | wind direction | speed MPH | gust MPH | rain 1hr in | rain 24hr in | rain mn in | humidity % | barometer mb |
| 20260507200227 | 55 | 270 | 8.0 | 0.0 | 0.00 | 0.00 | 0.00 | 76 | 1014.0 |
| 20260507193210 | 57 | 280 | 6.0 | 0.0 | 0.00 | 0.00 | 0.00 | 71 | 1014.0 |
| 20260507192045 | 57 | 290 | 7.0 | 0.0 | 0.00 | 0.00 | 0.00 | 67 | |
| 20260507190211 | 57 | 290 | 7.0 | 0.0 | 0.00 | 0.00 | 0.00 | 67 | 1014.0 |
| 20260507183217 | 59 | 300 | 8.0 | 0.0 | 0.00 | 0.00 | 0.00 | 62 | 1013.0 |
| 20260507181941 | 59 | 300 | 12.0 | 0.0 | 0.00 | 0.00 | 0.00 | 62 | |
| 20260507180218 | 59 | 300 | 13.0 | 0.0 | 0.00 | 0.00 | 0.00 | 62 | 1013.0 |
| 20260507173217 | 63 | 290 | 10.0 | 0.0 | 0.00 | 0.00 | 0.00 | 51 | 1012.0 |
| 20260507171942 | 64 | 280 | 14.0 | 0.0 | 0.00 | 0.00 | 0.00 | 45 | |
| 20260507170218 | 64 | 280 | 15.0 | 0.0 | 0.00 | 0.00 | 0.00 | 45 | 1012.0 |
| 20260507163216 | 66 | 270 | 15.0 | 0.0 | 0.00 | 0.00 | 0.00 | 42 | 1011.0 |
| 20260507162243 | 66 | 270 | 16.0 | 0.0 | 0.00 | 0.00 | 0.00 | 39 | |
| 20260507160213 | 66 | 260 | 15.0 | 0.0 | 0.00 | 0.00 | 0.00 | 39 | 1011.0 |
| 20260507153216 | 66 | 250 | 14.0 | 0.0 | 0.00 | 0.00 | 0.00 | 42 | 1012.0 |
| 20260507151941 | 66 | 260 | 18.0 | 0.0 | 0.00 | 0.00 | 0.00 | 42 | |
| 20260507150219 | 66 | 260 | 17.0 | 0.0 | 0.00 | 0.00 | 0.00 | 42 | 1011.0 |
| 20260507143216 | 64 | 280 | 12.0 | 0.0 | 0.00 | 0.00 | 0.00 | 52 | 1011.0 |
| 20260507141943 | 68 | 270 | 16.0 | 0.0 | 0.00 | 0.00 | 0.00 | 42 | |
| 20260507140219 | 68 | 270 | 14.0 | 0.0 | 0.00 | 0.00 | 0.00 | 45 | 1011.0 |
| 20260507133217 | 66 | 270 | 16.0 | 0.0 | 0.00 | 0.00 | 0.00 | 45 | 1012.0 |
| 20260507132045 | 66 | 270 | 14.0 | 0.0 | 0.00 | 0.00 | 0.00 | 42 | |
| 20260507123217 | 66 | 270 | 10.0 | 0.0 | 0.00 | 0.00 | 0.00 | 45 | 1011.0 |
| 20260507121942 | 66 | 240 | 14.0 | 0.0 | 0.00 | 0.00 | 0.00 | 45 | |
| 20260507120219 | 66 | 240 | 13.0 | 0.0 | 0.00 | 0.00 | 0.00 | 45 | 1011.0 |
| 20260507113216 | 66 | 250 | 13.0 | 0.0 | 0.00 | 0.00 | 0.00 | 45 | 1011.0 |
| 20260507111959 | 66 | 230 | 14.0 | 0.0 | 0.00 | 0.00 | 0.00 | 48 | |
| 20260507110220 | 66 | 220 | 14.0 | 0.0 | 0.00 | 0.00 | 0.00 | 45 | 1011.0 |
| 20260507103217 | 66 | 230 | 9.0 | 0.0 | 0.00 | 0.00 | 0.00 | 48 | 1011.0 |
| 20260507102142 | 64 | 250 | 12.0 | 0.0 | 0.00 | 0.00 | 0.00 | 52 | |
| 20260507100218 | 63 | 250 | 12.0 | 0.0 | 0.00 | 0.00 | 0.00 | 59 | 1011.0 |
| 20260507093216 | 63 | 250 | 10.0 | 0.0 | 0.00 | 0.00 | 0.00 | 59 | 1011.0 |
| 20260507091943 | 63 | 230 | 12.0 | 0.0 | 0.00 | 0.00 | 0.00 | 59 | |
| 20260507090219 | 63 | 230 | 12.0 | 0.0 | 0.00 | 0.00 | 0.00 | 59 | 1011.0 |
| 20260507083217 | 61 | 240 | 12.0 | 0.0 | 0.00 | 0.00 | 0.00 | 63 | 1010.0 |
| 20260507081942 | 61 | 250 | 9.0 | 0.0 | 0.00 | 0.00 | 0.00 | 63 | |
| 20260507080218 | 61 | 240 | 10.0 | 0.0 | 0.00 | 0.00 | 0.00 | 63 | 1011.0 |
| 20260507073209 | 61 | 240 | 15.0 | 0.0 | 0.00 | 0.00 | 0.00 | 67 | 1010.0 |
| 20260507071942 | 61 | 240 | 14.0 | 0.0 | 0.00 | 0.00 | 0.00 | 67 | |
| 20260507070221 | 61 | 240 | 14.0 | 0.0 | 0.00 | 0.00 | 0.00 | 67 | 1010.0 |
| 20260507063217 | 57 | 240 | 14.0 | 0.0 | 0.00 | 0.00 | 0.00 | 76 | 1010.0 |
| 20260507061942 | 57 | 240 | 14.0 | 0.0 | 0.00 | 0.00 | 0.00 | 76 | |
| 20260507060219 | 57 | 240 | 13.0 | 0.0 | 0.00 | 0.00 | 0.00 | 76 | 1009.0 |
| 20260507053210 | 57 | 230 | 10.0 | 0.0 | 0.00 | 0.00 | 0.00 | 76 | 1009.0 |
| 20260507051942 | 55 | 250 | 9.0 | 0.0 | 0.00 | 0.00 | 0.00 | 82 | |
| 20260507050220 | 55 | 230 | 8.0 | 0.0 | 0.00 | 0.00 | 0.00 | 87 | 1009.0 |
| 20260507043210 | 55 | 240 | 8.0 | 0.0 | 0.00 | 0.00 | 0.00 | 87 | 1008.0 |
| 20260507042146 | 55 | 240 | 9.0 | 0.0 | 0.00 | 0.00 | 0.00 | 87 | |
| 20260507040217 | 55 | 240 | 9.0 | 0.0 | 0.00 | 0.00 | 0.00 | 87 | 1008.0 |
| 20260507033210 | 54 | 0 | 1.0 | 0.0 | 0.00 | 0.00 | 0.00 | 93 | 1008.0 |
| 20260507031942 | 54 | 0 | 0.0 | 0.0 | 0.00 | 0.00 | 0.00 | 93 | |
| 20260507030224 | 54 | 0 | 0.0 | 0.0 | 0.00 | 0.00 | 0.00 | 93 | 1008.0 |
| 20260507023209 | 52 | 270 | 7.0 | 0.0 | 0.00 | 0.00 | 0.00 | 100 | 1008.0 |
| 20260507021941 | 54 | 270 | 7.0 | 0.0 | 0.00 | 0.00 | 0.00 | 93 | |
| 20260507020224 | 52 | 270 | 7.0 | 0.0 | 0.00 | 0.00 | 0.00 | 93 | 1008.0 |
| 20260507013209 | 54 | 200 | 3.0 | 0.0 | 0.00 | 0.00 | 0.00 | 93 | 1007.0 |
| 20260507012041 | 54 | 210 | 5.0 | 0.0 | 0.00 | 0.00 | 0.00 | 93 | |
| 20260507010226 | 54 | 220 | 5.0 | 0.0 | 0.00 | 0.00 | 0.00 | 93 | 1007.0 |
| 20260507003209 | 55 | 0 | 5.0 | 0.0 | 0.00 | 0.00 | 0.00 | 93 | 1006.0 |
| 20260507001942 | 55 | 220 | 5.0 | 0.0 | 0.00 | 0.00 | 0.00 | 93 | |
| 20260507000219 | 55 | 270 | 6.0 | 0.0 | 0.00 | 0.00 | 0.00 | 93 | 1007.0 |
| 20260506233210 | 57 | 20 | 5.0 | 0.0 | 0.00 | 0.00 | 0.00 | 87 | 1006.0 |
| 20260506231942 | 57 | 350 | 5.0 | 0.0 | 0.00 | 0.00 | 0.00 | 87 | |
| 20260506230225 | 57 | 330 | 5.0 | 0.0 | 0.00 | 0.00 | 0.00 | 82 | 1006.0 |
| 20260506223209 | 57 | 280 | 15.0 | 0.0 | 0.00 | 0.00 | 0.00 | 87 | 1006.0 |
| 20260506222142 | 57 | 270 | 18.0 | 0.0 | 0.00 | 0.00 | 0.00 | 87 | |
| 20260506220224 | 55 | 0 | 2.0 | 0.0 | 0.00 | 0.00 | 0.00 | 87 | 1005.0 |
| 20260506214304 | 55 | 280 | 6.0 | 0.0 | 0.00 | 0.00 | 0.00 | 87 | 1006.0 |
| 20260506213210 | 55 | 310 | 6.0 | 0.0 | 0.00 | 0.00 | 0.00 | 87 | 1005.0 |
| 20260506212012 | 55 | 310 | 3.0 | 0.0 | 0.00 | 0.00 | 0.00 | 87 | 1005.0 |
| 20260506211942 | 55 | 310 | 7.0 | 0.0 | 0.00 | 0.00 | 0.00 | 87 | |
| 20260506211703 | 55 | 310 | 5.0 | 0.0 | 0.00 | 0.00 | 0.00 | 87 | 1005.0 |
| 20260506210219 | 55 | 0 | 1.0 | 0.0 | 0.00 | 0.00 | 0.00 | 87 | 1005.0 |
| 20260506203208 | 55 | 140 | 6.0 | 0.0 | 0.00 | 0.00 | 0.00 | 87 | 1005.0 |
| 20260506202026 | 55 | 140 | 7.0 | 0.0 | 0.00 | 0.00 | 0.00 | 87 |